STARLINK-3866, 52500

Orbit data source: Space-Track

STARLINK-3866, 52500 is a payload satellite owned by SpaceX/Seattle (US) in LEO that was launched on Fri, 06 May 2022 UTC via an FALCON 9 launch vehicle from the Air Force Eastern Test Range (AFETR). Payload-class satellites include a variety of spacecraft equipped with specific instruments for various scientific and technological missions. These include communications satellites like Starlink; space stations such as the ISS; scientific satellites like the Hubble; Earth observation satellites from companies like Planet Labs, Umbra, and HawkEye 360; GPS; miniature CubeSats for education and research; and military/defense satellites.

Loading next visibility...
Identifier
52500, 2022-049BB
Orbit
LEO
Country
Flag of USUS
Related business
Manufacturer
SpaceX/Seattle
Mission
Operational Commercial Communications
Bus & Motor
STARLINK, Unknown motor
Mass
297 kg wet, ~220 kg dry
Launch date (UTC)
2022-05-06 (4 years ago)
Launch vehicle
FALCON 9
Launch site
Air Force Eastern Test Range (AFETR)
Object type
Payload
Rocket body
Debris
Shape & HBR
Box + 1 Pan, 10.1 m
Radar Cross Section
13.562 m², Large (>1 m²)

Expand to show TLE details & history
Last TLE update: 1 day ago

TLE from 1 day ago
0 STARLINK-3866
1 52500U 22049BB  26206.23643431 -.00000357  00000-0 -43621-5 0  9999
2 52500  53.1616 141.3232 0001301  90.0465 270.0676 15.08830925233299
Epoch: 2026-07-25T05:40Z
TLE epoch observation values (Epoch: 2026-07-25T05:40:27.924Z)
Latitude
0.00002°
Longitude
113.25525°
Altitude
540.662 km
Speed
7.593 km/s
True Right ascension
09h 25m 17s
True Declination
0° 00' 00"
Sunlit
Object was in daylight at epoch
Visualization orbit readout
Latitude
Unknown
Longitude
Unknown
Altitude
Unknown
Speed
Unknown
Apparent Right ascension
Unknown
Apparent Declination
Unknown
Sunlit
N/A
Visualization observer readout
Local Sidereal Time
22:11:38
Azimuth
Unknown
Elevation
Unknown
Doppler factor
Unknown
Orbital elements
Apogee altitude
540.925 km
Perigee altitude
539.125 km
Semi-major axis
6,918.162 km
Eccentricity
0.00013
Inclination
53.1616°
RAAN
141.3232°
Arg. of periapsis
90.0465°
True anomaly
270.05269°
Mean anomaly
270.0676°
Eccentric anomaly
270.06015°
Mean motion
3.77187 °/min
Orbital period
95.44 mins
BSTAR
-0.0000043621
Loading maneuver chart data...
Computing Atmospheric mass density...
Loading historical data...
Loading historical data...
Loading historical data...
Loading historical data...
Loading historical data...
Loading historical data...
Loading historical data...

Documentation

Showing up to 5 results
|